Back to catalog

STARLINK-37141

AliveCommunicationsVLEO
NORAD 68249·PAYLOAD·🇺🇸 United States

Launched Mar 17, 2026 from Vandenberg Space Force Base

Loading…

Next Passes (next 24 hours)

TLE

FreshSource: CelesTrak SupGP

Epoch: Sep 14, 2026, 23:12 UTC

1 68249C 26054T   26257.96715278 -.00043616  00000+0 -12888-2 0  2570
2 68249  53.1562 127.3872 0001291  92.0942   0.8457 15.34407468    19

Track STARLINK-37141 in real time with AllMySat

Download on the App Store